LX1BS-13 Weather Reports


Display with metric or nautical units.
time (UTC)temp
F
wind
direction
speed
MPH
gust
MPH
rain 1hr
in
rain 24hr
in
rain mn
in
humidity
%
barometer
mb
20260504100104 59 128 0.0 4.0 0.00 0.03 0.00 78 1013.8
20260504081603 57 39 0.0 2.0 0.00 0.03 0.00 81 1013.7
20260504044557 45 0 0.0 2.0 0.00 0.03 0.00 94 1013.1
20260504043100 45 0 0.0 2.0 0.00 0.03 0.00 94 1013.0
20260504041559 45 0 0.0 0.0 0.00 0.03 0.00 94 1013.0
20260504040100 45 0 0.0 0.0 0.00 0.03 0.00 94 1013.0
20260504034557 45 0 0.0 1.0 0.00 0.03 0.00 94 1013.0
20260504033103 45 0 0.0 2.0 0.00 0.03 0.00 93 1013.1
20260504031603 46 0 0.0 0.0 0.00 0.03 0.00 94 1013.0
20260504030058 45 0 0.0 1.0 0.00 0.03 0.00 94 1012.8
20260504024600 45 0 0.0 1.0 0.00 0.03 0.00 93 1012.9
20260504023057 46 0 0.0 1.0 0.00 0.03 0.00 93 1013.0
20260504021559 47 0 0.0 0.0 0.00 0.03 0.00 93 1013.0
20260504020137 47 0 0.0 0.0 0.00 0.03 0.00 93 1013.1
20260504014609 47 0 0.0 1.0 0.00 0.03 0.00 93 1013.2
20260504013117 47 0 0.0 0.0 0.00 0.03 0.00 93 1013.3
20260504011600 47 0 0.0 0.0 0.00 0.03 0.00 93 1013.2
20260504010057 47 0 0.0 2.0 0.00 0.03 0.00 92 1013.2
20260504004640 48 0 0.0 1.0 0.00 0.03 0.00 92 1013.2
20260504003102 48 0 0.0 0.0 0.00 0.03 0.00 92 1013.2
20260504001622 48 0 0.0 1.0 0.00 0.03 0.00 92 1013.0
20260504000110 48 0 0.0 1.0 0.00 0.03 0.00 91 1013.1
20260503234605 49 0 0.0 1.0 0.00 0.03 0.00 91 1013.0
20260503233102 49 0 0.0 1.0 0.00 0.03 0.00 90 1012.9
20260503231559 50 0 0.0 0.0 0.00 0.03 0.00 89 1013.1
20260503230115 50 0 0.0 0.0 0.00 0.03 0.00 90 1013.2
20260503224606 50 242 0.0 2.0 0.00 0.03 0.00 90 1013.2
20260503223057 50 0 0.0 0.0 0.00 0.03 0.00 89 1013.1
20260503221604 50 0 0.0 0.0 0.00 0.03 0.00 89 1013.1
20260503220058 51 0 0.0 0.0 0.00 0.03 0.00 88 1013.1
20260503214602 51 0 0.0 2.0 0.00 0.03 0.03 88 1013.1
20260503213059 51 0 0.0 1.0 0.00 0.03 0.03 87 1012.9
20260503211559 52 0 0.0 1.0 0.00 0.03 0.03 86 1013.0
20260503210100 52 0 0.0 1.0 0.00 0.03 0.03 85 1013.2
20260503204558 52 0 0.0 1.0 0.00 0.03 0.03 85 1013.0
20260503203114 53 242 0.0 1.0 0.00 0.03 0.03 83 1013.2
20260503201600 53 0 0.0 2.0 0.00 0.03 0.03 83 1013.2
20260503200106 53 242 0.0 2.0 0.00 0.03 0.03 84 1013.2
20260503194558 54 242 0.0 3.0 0.00 0.03 0.03 83 1013.1
20260503193056 54 0 0.0 2.0 0.00 0.03 0.03 82 1013.0
20260503191559 55 296 1.0 2.0 0.00 0.03 0.03 83 1013.1
20260503190108 55 0 0.0 2.0 0.00 0.03 0.03 83 1013.0
20260503184604 56 296 0.0 2.0 0.00 0.03 0.03 84 1012.9
20260503183101 56 0 0.0 2.0 0.00 0.03 0.03 85 1012.7
20260503181605 56 301 0.0 2.0 0.00 0.03 0.03 86 1012.5
20260503180057 57 0 0.0 3.0 0.00 0.03 0.03 86 1012.4
20260503174603 56 0 0.0 2.0 0.00 0.03 0.03 87 1012.3
20260503173105 56 0 0.0 2.0 0.00 0.03 0.03 88 1012.3
20260503171604 56 0 0.0 1.0 0.00 0.03 0.03 88 1012.4